User: anonymous   Login
Location: Blue Mountain Vista Observatory
(40.6992°N, 75.9422°W)
Time: 07:12:05
(UTC-04:00)
Language:

Cosmos 1151 - Orbit

View from above orbital plane
View from above orbital plane
View from above satellite
View from above satellite

Ground track
Ground track

The orbit data is extracted from the following two-line orbital elements,

1 11671U 80005A   14216.59500176  .14838416 -12223-5  12758-3 0  6091
2 11671 082.4436 262.1980 0010847 239.2010 121.7391 16.51711581895956
Epoch (UTC): 04 August 2014 14:16:48
Eccentricity: 0.0010847
inclination: 82.4436°
perigee height: 128 km
apogee height: 142 km
right ascension of ascending node: 262.1980°
argument of perigee: 239.2010°
revolutions per day: 16.51711581
mean anomaly at epoch: 121.7391°
orbit number at epoch: 89595

The dashed part of the orbit path shows where the satellite is in the earth's shadow,  

DLR